Content
SEND FEEDBACK

Daily
Averages
Monthly
Summary
Russia

DOLINSK, RUSSIA


Home > Europe > Russia
Elevation: 138 feet     Latitude: 47 20N     Longitude: 142 28E

WEATHER
 
SELECT A DAY
Number of Records: 201,220;   Date Range: 7/1/96 - 8/30/14
 
SHARE

PRINT THIS DATA

[ ← Previous Day ]
WEATHER ALMANAC - FEBRUARY 5, 2013
[ Next Day → ]
[ °C ]   °F
Weather ElementAverageHighLow
Temperature16.7 °F22 °F (5:00 pm)1.4 °F (2:00 am)
Dewpoint8.4 °F12.2 °F (4:30 pm)-2.2 °F (2:00 am)
Humidity69.1 %92 % (4:00 am)44 % (5:00 pm)
Barometer29.65 in29.88 in (11:00 pm)29.53 in (5:00 am)
Wind Speed14.6 mph24.6 mph (1:30 pm)
Wind Gust35.8 mph (1:30 pm)
Weather ElementAverage
Visibility4.9 mi
Wind DirectionNW (319.8 °)

Weather ElementTotal
Precipitation---
Heating Degree Days53.3 (Base 65)
Averaged from 43 records on February 5, 2013
WEATHER CONDITIONS BREAKOUT
WIND DIRECTION BREAKOUT
WEATHER BY HOUR - FEBRUARY 5, 2013
[ °C ]   °F
Local TimeTemperatureDewpointHumidityBarometerVisibilityWind DirectionWind SpeedGust SpeedPrecipitationEventsConditions
1:00 AM3.2 °F-0.4 °F85 %29.56 in2.2 miESE (120°)2.2 mphSmoke
2:00 AM1.4 °F-2.2 °F85 %29.56 in2.2 miNNW (330°)2.2 mphSmoke
3:00 AM6.8 °F3.2 °F85 %29.56 in2.2 miNorth (350°)6.7 mphSmoke
4:00 AM6.8 °F5.0 °F92 %29.56 in3.1 miNNW (340°)4.5 mphSmoke
5:00 AM8.6 °F5.0 °F85 %29.53 in3.1 miNNW (330°)6.7 mphSmoke
5:00 AM9.0 °F5.0 °F76 %29.57 in2.0 miWNW (290°)4.5 mphSnowLight Snow Showers
6:00 AM10.4 °F5.0 °F79 %29.53 in3.1 miNW (320°)4.5 mphSmoke
6:30 AM10.4 °F6.8 °F85 %29.53 in3.7 miNW (310°)4.5 mphMostly Cloudy
7:00 AM10.4 °F5.0 °F79 %29.56 in5.0 miNW (320°)6.7 mphMostly Cloudy
7:30 AM12.2 °F5.0 °F73 %29.53 in5.0 miNNW (330°)8.9 mphScattered Clouds
8:00 AM12.2 °F8.6 °F85 %29.53 in5.0 miNW (320°)6.7 mphScattered Clouds
8:30 AM14.0 °F6.8 °F73 %29.53 in6.2 miNW (310°)8.9 mphScattered Clouds
9:00 AM15.8 °F6.8 °F68 %29.56 in6.2 miNNW (330°)15.7 mphScattered Clouds
9:30 AM14.0 °F6.8 °F73 %29.56 in6.2 miNorth (10°)11.2 mphScattered Clouds
10:00 AM15.8 °F6.8 °F68 %29.56 in6.2 miNorth (350°)6.7 mphScattered Clouds
10:30 AM17.6 °F8.6 °F68 %29.56 in6.2 miNNW (340°)17.9 mphScattered Clouds
11:00 AM19.4 °F8.6 °F63 %29.59 in6.2 miNNW (340°)17.9 mphScattered Clouds
11:00 AM18.0 °F7.0 °F49 %29.59 in6.0 miNNW (330°)11.2 mphSnowLow Drifting Snow
11:30 AM19.4 °F8.6 °F63 %29.59 in6.2 miNNW (340°)20.1 mphSnowLow Drifting Snow
12:00 PM19.4 °F8.6 °F63 %29.59 in6.2 miNNW (340°)11.2 mph22.4 mphSnowLow Drifting Snow
12:30 PM19.4 °F8.6 °F63 %29.62 in6.2 miNNW (340°)11.2 mph22.4 mphSnowLow Drifting Snow
1:00 PM19.4 °F10.4 °F68 %29.62 in6.2 miNorth (350°)17.9 mph29.1 mphSnowLight Blowing Snow
1:30 PM19.4 °F10.4 °F68 %29.62 in5.0 miNorth (350°)24.6 mph35.8 mphSnowLight Blowing Snow
2:00 PM21.2 °F10.4 °F63 %29.62 in5.0 miNorth (350°)22.4 mph33.6 mphSnowLight Blowing Snow
2:30 PM21.2 °F10.4 °F63 %29.62 in5.0 miNorth (350°)22.4 mph33.6 mphSnowLight Blowing Snow
3:00 PM21.2 °F10.4 °F63 %29.65 in5.0 miNorth (350°)22.4 mph33.6 mphSnowLight Blowing Snow
3:30 PM21.2 °F10.4 °F63 %29.65 in5.0 miNorth (350°)24.6 mph35.8 mphSnowLight Blowing Snow
4:00 PM21.2 °F10.4 °F63 %29.68 in5.0 miNorth (350°)24.6 mph35.8 mphSnowLight Blowing Snow
4:30 PM21.2 °F12.2 °F68 %29.71 in5.0 miNorth (350°)24.6 mph35.8 mphSnowLight Snow Showers
5:00 PM22.0 °F9.0 °F44 %29.74 in2.0 miNorth (350°)13.4 mphSnowLight Snow Showers
5:00 PM21.2 °F12.2 °F68 %29.71 in5.0 miNorth (350°)22.4 mph33.6 mphSnowLight Snow Showers
5:30 PM21.2 °F10.4 °F63 %29.71 in5.0 miNNW (340°)22.4 mph33.6 mphSnowLight Snow Showers
6:00 PM21.2 °F10.4 °F63 %29.74 in5.0 miNorth (350°)24.6 mph35.8 mphSnowLight Blowing Snow
6:30 PM21.2 °F10.4 °F63 %29.74 in5.0 miNNW (340°)24.6 mph35.8 mphSnowLight Blowing Snow
7:00 PM19.4 °F10.4 °F68 %29.77 in5.0 miNorth (350°)17.9 mph29.1 mphSnowLight Blowing Snow
7:30 PM19.4 °F10.4 °F68 %29.77 in5.0 miNorth (360°)17.9 mph29.1 mphSnowLight Blowing Snow
8:00 PM21.2 °F10.4 °F63 %29.80 in6.2 miNorth (350°)17.9 mph29.1 mphSnowLow Drifting Snow
8:30 PM21.2 °F12.2 °F68 %29.80 in6.2 miNorth (360°)15.7 mph26.8 mphSnowLow Drifting Snow
9:00 PM21.2 °F12.2 °F68 %29.80 in6.2 miNorth (350°)20.1 mph31.3 mphSnowLow Drifting Snow
9:30 PM21.2 °F12.2 °F68 %29.83 in6.2 miNorth (350°)20.1 mph31.3 mphSnowLight Snow Showers
10:00 PM19.4 °F12.2 °F74 %29.83 in6.2 miNorth (350°)15.7 mph26.8 mphSnowLight Snow Showers
11:00 PM20.0 °F9.0 °F48 %29.88 in2.0 miNorth8.9 mphPartly Cloudy
11:00 PM19.4 °F10.4 °F68 %29.86 in6.2 miNorth (360°)11.2 mphPartly Cloudy
Hourly data recorded from UHSS, located miles away from Dolinsk, Russia







STORIES FROM OUR PARTNERS